Date,TemperatureHighF,TemperatureAvgF,TemperatureLowF,DewpointHighF,DewpointAvgF,DewpointLowF,HumidityHigh,HumidityAvg,HumidityLow,PressureMaxIn,PressureMinIn,WindSpeedMaxMPH,WindSpeedAvgMPH,GustSpeedMaxMPH,PrecipitationSumIn
2013-2-1,24,16,7,18,3,-4,84,56,43,30.48,30.21,22,3,22,0.00
2013-2-2,38,29,22,23,18,14,84,65,51,30.20,30.02,21,3,21,0.00
2013-2-3,33,28,24,26,19,14,90,69,46,30.13,29.96,26,3,27,0.00
2013-2-4,51,33,26,31,23,16,82,68,45,30.00,29.75,15,3,17,0.00
2013-2-5,50,36,28,34,28,23,84,73,52,30.10,29.83,17,2,17,0.00
2013-2-6,47,37,24,32,28,22,92,73,50,30.21,30.05,14,2,14,0.00
2013-2-7,49,41,35,43,35,29,96,80,57,30.05,29.81,23,3,25,0.27
2013-2-8,38,32,29,35,26,23,90,80,72,30.36,29.96,25,5,25,0.00
2013-2-9,41,33,29,32,26,22,80,74,63,30.34,30.02,16,3,16,0.00
2013-2-10,53,46,37,51,41,30,94,86,43,30.02,29.56,26,7,26,0.67
2013-2-11,49,40,33,32,26,23,73,56,44,30.11,29.67,22,6,25,0.00
2013-2-12,43,34,25,30,26,22,90,72,50,30.14,29.89,10,0,10,0.00
2013-2-13,41,36,34,29,29,27,82,76,63,29.91,29.80,5,0,5,0.00
2013-2-14,52,42,35,34,31,29,81,65,43,30.00,29.75,19,3,19,0.00
2013-2-15,36,32,25,31,20,11,82,64,36,30.22,30.00,20,4,21,0.00
2013-2-16,32,25,19,14,11,6,73,57,35,30.23,30.13,20,3,20,0.00
2013-2-17,41,31,18,23,18,13,82,61,37,30.19,29.91,18,4,19,0.00
2013-2-18,53,43,32,47,36,22,92,75,57,29.91,29.50,33,9,37,0.26
2013-2-19,32,25,21,23,14,10,72,61,50,30.25,29.80,24,5,24,0.00
2013-2-20,24,20,13,14,9,4,75,61,54,30.40,30.24,17,2,18,0.00
2013-2-21,31,24,18,30,20,13,94,84,68,30.32,29.80,26,3,26,0.00
2013-2-22,36,31,24,33,27,17,95,85,67,30.03,29.76,14,2,15,0.28
2013-2-23,32,24,16,20,16,12,86,71,54,30.02,29.96,12,1,12,0.07
2013-2-24,39,28,14,24,19,10,88,69,48,30.11,30.00,9,1,10,0.03
2013-2-25,44,36,26,31,27,22,84,71,55,30.06,29.64,21,3,23,0.04
2013-2-26,39,35,32,37,33,29,94,92,81,29.64,29.33,25,3,25,0.80
2013-2-27,34,32,31,31,29,28,93,89,86,29.81,29.57,16,3,17,0.06
2013-2-28,34,32,31,30,28,27,91,87,82,30.04,29.80,16,2,16,0.01